Location: Conjunto Santa Maria
(19.9513°S, 43.9599°W)
Time: 13:05:16
(UTC+00:00)

Cosmos 1680 Rocket - Pass Details

Date: 21 January 2021
Orbit: 761 x 780 km, 74.1° (Epoch: 03 March)

Event Time Altitude Azimuth Distance (km) Brightness Sun altitude
Exits shadow 23:04:25 14° 3° (N) 2,034 5.4 -18.5°
Maximum altitude 23:08:48 55° 78° (ENE) 914 3.5 -19.4°
Drops below altitude 10° 23:13:55 10° 155° (SSE) 2,312 6.0 -20.4°
Sets 23:16:20 0° 159° (SSE) 3,246 6.9 -20.9°
